CW7104 Weather Reports


time (UTC)temp
F
wind
direction
speed
knots
gust
knots
rain 1hr
in
rain 24hr
in
rain mn
in
humidity
%
barometer
mb
20260904231904 97 212 0.0 0.0 0.00 0.00 0.00 46 1011.9
20260904231404 97 212 0.0 0.0 0.00 0.00 0.00 45 1011.9
20260904230904 97 212 0.0 0.0 0.00 0.00 0.00 45 1011.9
20260904230405 97 212 0.0 0.0 0.00 0.00 0.00 45 1011.9
20260904225904 98 213 0.0 0.0 0.00 0.00 0.00 44 1011.8
20260904225404 98 213 0.0 0.0 0.00 0.00 0.00 43 1011.8
20260904224904 98 213 0.0 0.0 0.00 0.00 0.00 43 1011.8
20260904224405 99 213 0.0 0.0 0.00 0.00 0.00 42 1011.8
20260904223905 99 213 0.0 0.0 0.00 0.00 0.00 42 1011.7
20260904223404 100 216 0.0 0.0 0.00 0.00 0.00 42 1011.7
20260904222404 102 217 0.0 0.0 0.00 0.00 0.00 40 1011.6
20260904221905 102 217 0.0 0.0 0.00 0.00 0.00 39 1011.7
20260904221405 102 240 0.0 0.0 0.00 0.00 0.00 39 1011.7
20260904220904 101 240 0.0 0.0 0.00 0.00 0.00 41 1011.8
20260904220405 101 240 0.0 0.0 0.00 0.00 0.00 40 1011.8
20260904215904 100 240 0.0 0.0 0.00 0.00 0.00 40 1011.9
20260904215404 100 240 0.0 0.0 0.00 0.00 0.00 43 1011.9
20260904214905 99 240 0.0 0.0 0.00 0.00 0.00 42 1012.1
20260904214404 100 240 0.0 0.0 0.00 0.00 0.00 42 1012.2
20260904213904 101 240 0.0 0.0 0.00 0.00 0.00 40 1012.2
20260904213405 102 241 0.0 0.0 0.00 0.00 0.00 39 1012.3
20260904212905 102 241 0.0 0.0 0.00 0.00 0.00 38 1012.3
20260904211905 102 222 0.0 0.0 0.00 0.00 0.00 38 1012.4
20260904211405 102 221 0.0 0.0 0.00 0.00 0.00 38 1012.5
20260904210904 101 221 0.0 0.0 0.00 0.00 0.00 43 1012.5
20260904210405 100 221 0.0 0.0 0.00 0.00 0.00 43 1012.6
20260904205404 98 222 0.0 0.0 0.00 0.00 0.00 45 1012.8
20260904204905 98 222 0.0 0.0 0.00 0.00 0.00 44 1012.8
20260904203904 100 197 0.0 0.9 0.00 0.00 0.00 42 1012.8
20260904203404 101 229 0.0 7.0 0.00 0.00 0.00 41 1012.9
20260904202904 100 176 0.0 4.3 0.00 0.00 0.00 42 1012.9
20260904202404 100 211 0.0 0.0 0.00 0.00 0.00 42 1013.0
20260904201904 100 157 0.0 0.0 0.00 0.00 0.00 41 1013.0
20260904201405 101 157 0.0 0.0 0.00 0.00 0.00 40 1013.0
20260904200905 102 177 0.0 6.1 0.00 0.00 0.00 39 1013.1
20260904200405 103 147 0.0 0.0 0.00 0.00 0.00 40 1013.1
20260904195904 103 159 0.0 0.0 0.00 0.00 0.00 40 1013.2
20260904195405 103 213 0.0 0.0 0.00 0.00 0.00 39 1013.4
20260904194904 103 185 0.0 0.9 0.00 0.00 0.00 39 1013.4
20260904194404 103 203 0.0 0.9 0.00 0.00 0.00 39 1013.5
20260904193905 103 203 0.0 0.0 0.00 0.00 0.00 39 1013.6
20260904193404 102 181 0.0 0.0 0.00 0.00 0.00 39 1013.7
20260904192904 102 211 0.9 6.1 0.00 0.00 0.00 41 1013.7
20260904192404 101 195 0.0 0.0 0.00 0.00 0.00 42 1013.8
20260904191905 101 151 0.0 1.7 0.00 0.00 0.00 43 1013.9
20260904191404 100 199 0.9 5.2 0.00 0.00 0.00 43 1014.0
20260904190904 99 225 0.0 0.9 0.00 0.00 0.00 44 1014.0
20260904190404 98 259 0.0 0.0 0.00 0.00 0.00 46 1014.1
20260904185905 99 261 0.0 0.0 0.00 0.00 0.00 42 1014.2
20260904185404 100 261 0.0 0.9 0.00 0.00 0.00 41 1014.2
20260904161404 95 267 0.0 0.0 0.00 0.00 0.00 53 1015.6
20260904160905 95 267 0.0 0.0 0.00 0.00 0.00 54 1015.6
20260904155904 95 266 0.9 4.3 0.00 0.00 0.00 53 1015.6
20260904155404 95 224 0.0 5.2 0.00 0.00 0.00 53 1015.5
20260904154404 94 226 0.0 0.0 0.00 0.00 0.00 54 1015.6
20260904153904 94 209 0.0 0.0 0.00 0.00 0.00 54 1015.6
20260904153404 94 283 0.0 0.0 0.00 0.00 0.00 55 1015.5
20260904152904 94 229 0.0 0.0 0.00 0.00 0.00 55 1015.6
20260904151904 93 185 0.0 0.0 0.00 0.00 0.00 55 1015.7
20260904151404 92 235 0.0 0.0 0.00 0.00 0.00 56 1015.7
20260904150904 92 217 0.0 0.0 0.00 0.00 0.00 57 1015.6
20260904145404 89 250 0.0 0.0 0.00 0.00 0.00 62 1015.7
20260904144904 89 239 0.0 0.0 0.00 0.00 0.00 64 1015.6
20260904144404 88 231 0.0 0.0 0.00 0.00 0.00 64 1015.6
20260904143904 87 234 0.0 0.0 0.00 0.00 0.00 66 1015.7
20260904142904 86 232 0.0 0.0 0.00 0.00 0.00 68 1015.6
20260904142404 85 228 0.0 0.0 0.00 0.00 0.00 69 1015.7
20260904141904 85 229 0.0 0.0 0.00 0.00 0.00 71 1015.6
20260904141404 84 229 0.0 0.0 0.00 0.00 0.00 72 1015.6
20260904140904 84 229 0.0 0.0 0.00 0.00 0.00 73 1015.5
20260904140403 83 229 0.0 0.0 0.00 0.00 0.00 74 1015.5
20260904135904 82 229 0.0 0.0 0.00 0.00 0.00 75 1015.5
20260904135404 82 197 0.0 0.0 0.00 0.00 0.00 77 1015.6
20260904134903 81 174 0.0 0.0 0.00 0.00 0.00 78 1015.5
20260904134404 80 174 0.0 0.0 0.00 0.00 0.00 79 1015.6
20260904133904 80 174 0.0 0.0 0.00 0.00 0.00 80 1015.6
20260904133404 79 174 0.0 0.0 0.00 0.00 0.00 81 1015.5
20260904132904 79 174 0.0 0.0 0.00 0.00 0.00 81 1015.5
20260904131904 78 142 0.0 0.0 0.00 0.00 0.00 82 1015.5
20260904131404 77 182 0.0 0.0 0.00 0.00 0.00 82 1015.5
20260904130903 76 182 0.0 0.0 0.00 0.00 0.00 82 1015.4
20260904125904 76 206 0.0 0.0 0.00 0.00 0.00 82 1015.4
20260904125404 75 206 0.0 0.0 0.00 0.00 0.00 82 1015.4
20260904124904 75 206 0.0 0.0 0.00 0.00 0.00 82 1015.4
20260904123903 74 206 0.0 0.0 0.00 0.00 0.00 82 1015.4
20260904123403 74 206 0.0 0.0 0.00 0.00 0.00 82 1015.4
20260904122904 74 206 0.0 0.0 0.00 0.00 0.00 82 1015.5
20260904122404 74 206 0.0 0.0 0.00 0.00 0.00 82 1015.4
20260904121904 74 206 0.0 0.0 0.00 0.00 0.00 82 1015.3
20260904121404 73 206 0.0 0.0 0.00 0.00 0.00 82 1015.3
20260904120904 73 206 0.0 0.0 0.00 0.00 0.00 82 1015.2
20260904120404 73 206 0.0 0.0 0.00 0.00 0.00 82 1015.2
20260904115903 73 206 0.0 0.0 0.00 0.00 0.00 82 1015.2
20260904115403 72 206 0.0 0.0 0.00 0.00 0.00 82 1015.2
20260904114904 72 206 0.0 0.0 0.00 0.00 0.00 82 1015.2
20260904114404 72 206 0.0 0.0 0.00 0.00 0.00 82 1015.1
20260904113403 72 204 0.0 0.0 0.00 0.00 0.00 82 1014.9
20260904112904 72 203 0.0 0.0 0.00 0.00 0.00 82 1014.9
20260904112404 72 203 0.0 0.0 0.00 0.00 0.00 82 1014.7
20260904111904 72 203 0.0 0.0 0.00 0.00 0.00 82 1014.7
20260904111404 72 203 0.0 0.0 0.00 0.00 0.00 82 1014.6
20260904110903 73 203 0.0 0.0 0.00 0.00 0.00 82 1014.5
20260904105904 73 203 0.0 0.0 0.00 0.00 0.00 82 1014.4
20260904105404 73 203 0.0 0.0 0.00 0.00 0.00 82 1014.4
20260904104903 73 203 0.0 0.0 0.00 0.00 0.00 82 1014.4
20260904104404 73 203 0.0 0.0 0.00 0.00 0.00 82 1014.4
20260904103904 73 203 0.0 0.0 0.00 0.00 0.00 82 1014.4
20260904103404 73 203 0.0 0.0 0.00 0.00 0.00 82 1014.3
20260904102903 73 203 0.0 0.0 0.00 0.00 0.00 82 1014.3
20260904102403 73 203 0.0 0.0 0.00 0.00 0.00 82 1014.2
20260904101904 73 203 0.0 0.0 0.00 0.00 0.00 82 1014.3
20260904101404 73 203 0.0 0.0 0.00 0.00 0.00 82 1014.4
20260904100903 73 203 0.0 0.0 0.00 0.00 0.00 82 1014.3
20260904100403 73 203 0.0 0.0 0.00 0.00 0.00 82 1014.4
20260904095904 73 204 0.0 0.0 0.00 0.00 0.00 82 1014.2
20260904095403 73 203 0.0 0.0 0.00 0.00 0.00 82 1014.3
20260904094904 73 203 0.0 0.0 0.00 0.00 0.00 82 1014.2
20260904094404 73 203 0.0 0.0 0.00 0.00 0.00 82 1014.3
20260904093403 73 203 0.0 0.0 0.00 0.00 0.00 82 1014.3
20260904092404 73 204 0.0 0.0 0.00 0.00 0.00 82 1014.2
20260904091904 73 203 0.0 0.0 0.00 0.00 0.00 81 1014.1
20260904091403 73 204 0.0 0.0 0.00 0.00 0.00 81 1014.1
20260904090905 73 204 0.0 0.0 0.00 0.00 0.00 81 1014.0
20260904090405 73 204 0.0 0.0 0.00 0.00 0.00 81 1014.0
20260904085906 73 204 0.0 0.0 0.00 0.00 0.00 81 1014.0
20260904085405 73 204 0.0 0.0 0.00 0.00 0.00 81 1014.1
20260904084905 73 204 0.0 0.0 0.00 0.00 0.00 81 1014.0
20260904084406 73 204 0.0 0.0 0.00 0.00 0.00 81 1013.9
20260904083906 74 203 0.0 0.0 0.00 0.00 0.00 81 1013.9
20260904083405 74 204 0.0 0.0 0.00 0.00 0.00 81 1013.9
20260904082405 74 204 0.0 0.0 0.00 0.00 0.00 81 1013.9
20260904081905 74 204 0.0 0.0 0.00 0.00 0.00 81 1013.9
20260904080905 74 204 0.0 0.0 0.00 0.00 0.00 81 1013.8
20260904075905 74 204 0.0 0.0 0.00 0.00 0.00 81 1013.7
20260904075405 74 204 0.0 0.0 0.00 0.00 0.00 81 1013.7
20260904074905 74 204 0.0 0.0 0.00 0.00 0.00 81 1013.7
20260904074405 74 204 0.0 0.0 0.00 0.00 0.00 80 1013.7
20260904073905 74 204 0.0 0.0 0.00 0.00 0.00 80 1013.8
20260904073405 74 204 0.0 0.0 0.00 0.00 0.00 80 1013.8
20260904072405 74 204 0.0 0.0 0.00 0.00 0.00 81 1013.7
20260904071405 74 204 0.0 0.0 0.00 0.00 0.00 80 1013.8
20260904070905 75 204 0.0 0.0 0.00 0.00 0.00 80 1013.8
20260904070405 75 204 0.0 0.0 0.00 0.00 0.00 81 1013.8
20260904065905 75 204 0.0 0.0 0.00 0.00 0.00 80 1013.9
20260904065405 75 203 0.0 0.0 0.00 0.00 0.00 80 1013.9
20260904064905 75 204 0.0 0.0 0.00 0.00 0.00 80 1013.9
20260904064405 75 204 0.0 0.0 0.00 0.00 0.00 80 1014.0
20260904063905 75 204 0.0 0.0 0.00 0.00 0.00 80 1013.9
20260904063405 75 204 0.0 0.0 0.00 0.00 0.00 80 1013.9
20260904062905 75 204 0.0 0.0 0.00 0.00 0.00 80 1014.0
20260904062405 75 204 0.0 0.0 0.00 0.00 0.00 79 1014.0
20260904061906 75 204 0.0 0.0 0.00 0.00 0.00 80 1014.0
20260904061405 76 204 0.0 0.0 0.00 0.00 0.00 80 1013.9
20260904060905 76 204 0.0 0.0 0.00 0.00 0.00 80 1014.0
20260904060405 76 204 0.0 0.0 0.00 0.00 0.00 79 1014.0
20260904055905 76 204 0.0 0.0 0.00 0.00 0.00 79 1014.0
20260904055405 76 204 0.0 0.0 0.00 0.00 0.00 79 1014.1
20260904054905 76 204 0.0 0.0 0.00 0.00 0.00 79 1014.1
20260904053905 76 204 0.0 0.0 0.00 0.00 0.00 78 1014.1
20260904053405 76 204 0.0 0.0 0.00 0.00 0.00 78 1014.1
20260904052905 77 204 0.0 0.0 0.00 0.00 0.00 78 1014.1
20260904051904 77 203 0.0 0.0 0.00 0.00 0.00 78 1014.1
20260904051405 77 204 0.0 0.0 0.00 0.00 0.00 77 1014.1
20260904050905 78 204 0.0 0.0 0.00 0.00 0.00 77 1014.0
20260904050405 78 204 0.0 0.0 0.00 0.00 0.00 76 1014.0
20260904045905 78 204 0.0 0.0 0.00 0.00 0.00 76 1014.0
20260904045405 78 204 0.0 0.0 0.00 0.00 0.00 76 1014.0
20260904044405 79 203 0.0 0.0 0.00 0.00 0.00 75 1014.0
20260904043905 79 204 0.0 0.0 0.00 0.00 0.00 75 1013.9
20260904043405 79 204 0.0 0.0 0.00 0.00 0.00 75 1013.9
20260904042905 79 204 0.0 0.0 0.00 0.00 0.00 76 1013.9
20260904042405 79 204 0.0 0.0 0.00 0.00 0.00 76 1013.9
20260904041405 79 204 0.0 0.0 0.00 0.00 0.00 76 1013.9
20260904040905 79 204 0.0 0.0 0.00 0.00 0.00 76 1013.9
20260904034905 80 203 0.0 0.0 0.00 0.00 0.00 75 1014.1
20260904034405 80 204 0.0 0.0 0.00 0.00 0.00 75 1014.1
20260904033905 80 204 0.0 0.0 0.00 0.00 0.00 74 1014.1
20260904033405 80 203 0.0 0.0 0.00 0.00 0.00 74 1014.1
20260904032905 79 204 0.0 0.0 0.00 0.00 0.00 74 1014.1
20260904032405 80 204 0.0 0.0 0.00 0.00 0.00 73 1014.2
20260904030905 80 204 0.0 0.0 0.00 0.00 0.00 72 1014.2
20260904030404 80 204 0.0 0.0 0.00 0.00 0.00 72 1014.3
20260904025905 81 204 0.0 0.0 0.00 0.00 0.00 72 1014.3
20260904025405 81 204 0.0 0.0 0.00 0.00 0.00 71 1014.3
20260904024905 81 204 0.0 0.0 0.00 0.00 0.00 71 1014.3
20260904024405 82 204 0.0 0.0 0.00 0.00 0.00 70 1014.2
20260904023405 82 204 0.0 0.0 0.00 0.00 0.00 69 1014.1
20260904022905 83 204 0.0 0.0 0.00 0.00 0.00 67 1014.0
20260904022405 83 204 0.0 0.0 0.00 0.00 0.00 67 1014.0
20260904021905 83 204 0.0 0.0 0.00 0.00 0.00 67 1014.0
20260904021405 83 204 0.0 0.0 0.00 0.00 0.00 66 1013.9
20260904020904 84 204 0.0 0.0 0.00 0.00 0.00 66 1014.0
20260904020405 84 204 0.0 0.0 0.00 0.00 0.00 65 1013.9
20260904015905 84 204 0.0 0.0 0.00 0.00 0.00 64 1013.9
20260904015404 85 204 0.0 0.0 0.00 0.00 0.00 64 1013.8
20260904014905 85 204 0.0 0.0 0.00 0.00 0.00 63 1013.8
20260904014405 85 204 0.0 0.0 0.00 0.00 0.00 62 1013.7
20260904013905 85 204 0.0 0.0 0.00 0.00 0.00 62 1013.8
20260904013405 85 204 0.0 0.0 0.00 0.00 0.00 61 1013.7
20260904012905 86 204 0.0 0.0 0.00 0.00 0.00 61 1013.7
20260904012405 86 204 0.0 0.0 0.00 0.00 0.00 60 1013.7
20260904011405 87 204 0.0 0.0 0.00 0.00 0.00 59 1013.6
20260904010904 87 204 0.0 0.0 0.00 0.00 0.00 58 1013.5
20260904010404 88 204 0.0 0.0 0.00 0.00 0.00 58 1013.5
20260904005905 88 204 0.0 0.0 0.00 0.00 0.00 57 1013.5
20260904005405 89 204 0.0 0.0 0.00 0.00 0.00 56 1013.4
20260904004405 89 204 0.0 0.0 0.00 0.00 0.00 55 1013.4
20260904003905 90 204 0.0 0.0 0.00 0.00 0.00 54 1013.3
20260904003405 90 204 0.0 0.0 0.00 0.00 0.00 53 1013.3
20260904002904 91 204 0.0 0.0 0.00 0.00 0.00 53 1013.2
20260904002404 91 204 0.0 0.0 0.00 0.00 0.00 53 1013.2
20260904001904 91 204 0.0 0.0 0.00 0.00 0.00 52 1013.1
20260903235905 93 204 0.0 0.0 0.00 0.00 0.00 49 1013.1
20260903235405 94 204 0.0 0.0 0.00 0.00 0.00 49 1013.0
20260903234904 94 198 0.0 0.0 0.00 0.00 0.00 48 1013.0
20260903234404 95 198 0.0 0.0 0.00 0.00 0.00 47 1013.0
20260903233905 95 207 0.0 0.0 0.00 0.00 0.00 46 1012.9
20260903233405 96 207 0.0 0.0 0.00 0.00 0.00 45 1012.9
20260903232905 96 209 0.0 0.0 0.00 0.00 0.00 45 1012.9
20260903232404 96 124 0.0 0.0 0.00 0.00 0.00 45 1012.9